Beauregard Regional Airport De Ridder US
ICAO: KDRI
IATA: DRI
Category: Medium
Scheduled Services: No

Elevation: 202 ft
TransAlt. 18000 ft.

Airport Communications:
POLK APP/DEP:123.7
AWOS 3:118.225
DE RIDDER RDO:122.2
CTAF/UNICOM:122.8

KDRI Zoom In..

Runways:

(A) RW 14 length 4220 ft width 60 ft
LOC 111.10 / hdg 130

(B) RW 18 length 5495 ft width 100 ft
LOC 111.10 / hdg 175

(C) RW 32 length 4220 ft width 60 ft
LOC 111.10 / hdg 310

(D) RW 36 length 5495 ft width 100 ft
LOC 111.10 / hdg 355

Location; KDRI
Day. 25 / Time. 10.35 Zulu
* Altimeter: 30.07
* Temperature: 13° c. 55.4°f.
* Wind from: 000° Speed 00 kn.
Dewpoint: 12° c.
Visibility: 10 Statute Miles.
Clouds: Clear (automated report).

KDRI 251035Z AUTO 00000KT 10SM CLR 13/12 A3007 RMK AO2 T01300123


Wind - Calm.

  YouTube Music Video
 
jpsmedia.com for Web Design  worldairports.se 2018   terms of use